Location: Easthampton
(42.2676°N, 72.6690°W)
Time: 22:26:09
(UTC+00:00)

AO-91 - Pass Details

Date: 06 April 2023
Orbit: 446 x 775 km, 97.6° (Epoch: 28 May)

Event Time Altitude Azimuth Distance (km) Brightness Sun altitude
Rises 03:21:29 0° 9° (N) 3,256 ? -37.1°
Reaches altitude 10° 03:23:50 10° 7° (N) 2,336 ? -37.3°
Enters shadow 03:25:39 22° 3° (N) 1,644 ? -37.5°
